H1 CPF 2 NER 2025 12 17 9 351 01 glonass137 H2 1705501 9137 42939 2025 12 17 0 0 0 2025 12 20 23 45 0 900 1 1 0 0 0 1 H9 10 0 61026 0.00000 0 -1059005.227 21066897.267 -14354658.298 10 0 61026 900.00000 0 -1527880.598 22608887.974 -11729168.061 10 0 61026 1800.00000 0 -1790275.989 23856862.607 -8876046.474 10 0 61026 2700.00000 0 -1883731.810 24767318.243 -5850684.870 10 0 61026 3600.00000 0 -1853370.221 25307290.161 -2711802.555 10 0 61026 4500.00000 0 -1749737.629 25455702.371 479691.479 10 0 61026 5400.00000 0 -1626419.569 25204239.840 3661878.618 10 0 61026 6300.00000 0 -1537529.219 24557706.096 6773029.596 10 0 61026 7200.00000 0 -1535176.071 23533851.420 9752799.046 10 0 61026 8100.00000 0 -1667021.956 22162678.928 12543392.567 10 0 61026 9000.00000 0 -1974027.932 20485257.526 15090683.822 10 0 61026 9900.00000 0 -2488487.413 18552091.295 17345260.279 10 0 61026 10800.00000 0 -3232428.878 16421113.115 19263377.672 10 0 61026 11700.00000 0 -4216456.047 14155385.840 20807805.205 10 0 61026 12600.00000 0 -5439075.104 11820606.344 21948545.531 10 0 61026 13500.00000 0 -6886538.310 9482515.702 22663416.047 10 0 61026 14400.00000 0 -8533211.859 7204322.555 22938480.553 10 0 61026 15300.00000 0 -10342454.096 5044246.082 22768323.040 10 0 61026 16200.00000 0 -12267968.937 3053279.993 22156158.217 10 0 61026 17100.00000 0 -14255579.573 1273269.814 21113776.279 10 0 61026 18000.00000 0 -16245349.830 -264617.099 19661322.399 10 0 61026 18900.00000 0 -18173965.856 -1540965.690 17826914.419 10 0 61026 19800.00000 0 -19977279.618 -2548687.141 15646105.289 10 0 61026 20700.00000 0 -21592908.422 -3293069.091 13161199.749 10 0 61026 21600.00000 0 -22962781.899 -3791300.542 10420437.768 10 0 61026 22500.00000 0 -24035529.604 -4071491.893 7477059.948 10 0 61026 23400.00000 0 -24768608.575 -4171231.962 4388272.797 10 0 61026 24300.00000 0 -25130080.858 -4135743.561 1214133.984 10 0 61026 25200.00000 0 -25099965.470 -4015716.388 -1983620.418 10 0 61026 26100.00000 0 -24671107.132 -3864909.887 -5142783.218 10 0 61026 27000.00000 0 -23849524.528 -3737628.686 -8201893.609 10 0 61026 27900.00000 0 -22654222.912 -3686178.711 -11101440.269 10 0 61026 28800.00000 0 -21116478.676 -3758412.953 -13785025.719 10 0 61026 29700.00000 0 -19278625.880 -3995471.950 -16200468.472 10 0 61026 30600.00000 0 -17192395.833 -4429815.673 -18300821.037 10 0 61026 31500.00000 0 -14916879.631 -5083630.912 -20045283.628 10 0 61026 32400.00000 0 -12516199.260 -5967682.183 -21399995.868 10 0 61026 33300.00000 0 -10056984.870 -7080655.229 -22338691.381 10 0 61026 34200.00000 0 -7605763.631 -8409021.261 -22843203.057 10 0 61026 35100.00000 0 -5226368.922 -9927428.057 -22903809.786 10 0 61026 36000.00000 0 -2977477.303 -11599601.933 -22519418.619 10 0 61026 36900.00000 0 -910375.123 -13379723.082 -21697579.447 10 0 61026 37800.00000 0 932953.338 -15214217.093 -20454332.394 10 0 61026 38700.00000 0 2521337.902 -17043888.034 -18813891.298 10 0 61026 39600.00000 0 3835473.207 -18806304.244 -16808169.592 10 0 61026 40500.00000 0 4868465.943 -20438337.401 -14476157.877 10 0 61026 41400.00000 0 5625857.493 -21878749.040 -11863165.199 10 0 61026 42300.00000 0 6125122.720 -23070716.561 -9019938.670 10 0 61026 43200.00000 0 6394667.520 -23964193.260 -6001678.400 10 0 61026 44100.00000 0 6472368.705 -24518003.781 -2866966.754 10 0 61026 45000.00000 0 6403718.857 -24701587.294 323367.313 10 0 61026 45900.00000 0 6239655.304 -24496315.493 3507426.819 10 0 61026 46800.00000 0 6034165.554 -23896330.145 6623445.336 10 0 61026 47700.00000 0 5841770.789 -22908865.103 9610982.335 10 0 61026 48600.00000 0 5714994.035 -21554039.110 12412092.132 10 0 61026 49500.00000 0 5701920.150 -19864127.870 14972443.990 10 0 61026 50400.00000 0 5843950.800 -17882345.462 17242371.840 10 0 61026 51300.00000 0 6173849.328 -15661185.560 19177833.684 10 0 61026 52200.00000 0 6714158.230 -13260391.005 20741262.556 10 0 61026 53100.00000 0 7476056.330 -10744635.682 21902292.983 10 0 61026 54000.00000 0 8458704.428 -8181014.345 22638349.357 10 0 61026 54900.00000 0 9649107.857 -5636443.862 22935085.137 10 0 61026 55800.00000 0 11022502.893 -3175083.032 22786664.497 10 0 61026 56700.00000 0 12543252.173 -855877.226 22195880.905 10 0 61026 57600.00000 0 14166213.075 1269670.960 21174109.974 10 0 61026 58500.00000 0 15838523.200 3159413.089 19741096.932 10 0 61026 59400.00000 0 17501729.493 4782069.436 17924582.037 10 0 61026 60300.00000 0 19094172.903 6118284.205 15759770.340 10 0 61026 61200.00000 0 20553529.411 7161177.824 13288655.168 10 0 61026 62100.00000 0 21819401.198 7916373.769 10559207.671 10 0 61026 63000.00000 0 22835849.191 8401499.294 7624447.561 10 0 61026 63900.00000 0 23553760.147 8645181.666 4541412.798 10 0 61026 64800.00000 0 23932948.075 8685582.854 1370048.258 10 0 61026 65700.00000 0 23943900.654 8568535.351 -1827964.708 10 0 61026 66600.00000 0 23569096.135 8345358.833 -4990414.385 10 0 61026 67500.00000 0 22803834.320 8070451.106 -8055776.204 10 0 61026 68400.00000 0 21656545.802 7798756.441 -10964417.067 10 0 61026 69300.00000 0 20148565.792 7583219.667 -13659762.072 10 0 61026 70200.00000 0 18313381.636 7472334.903 -16089400.199 10 0 61026 71100.00000 0 16195385.384 7507893.658 -18206106.880 10 0 61026 72000.00000 0 13848183.692 7723028.338 -19968763.225 10 0 61026 72900.00000 0 11332535.892 8140634.490 -21343154.071 10 0 61026 73800.00000 0 8714006.444 8772238.784 -22302629.594 10 0 61026 74700.00000 0 6060429.786 9617360.802 -22828618.111 10 0 61026 75600.00000 0 3439293.077 10663395.656 -22910980.731 10 0 61026 76500.00000 0 915145.372 11886022.563 -22548201.640 10 0 61026 77400.00000 0 -1452859.582 13250122.305 -21747410.967 10 0 61026 78300.00000 0 -3613185.682 14711165.225 -20524240.287 10 0 61026 79200.00000 0 -5523810.701 16217011.741 -18902513.987 10 0 61026 80100.00000 0 -7153718.871 17710050.082 -16913782.650 10 0 61026 81000.00000 0 -8483929.227 19129581.875 -14596707.643 10 0 61026 81900.00000 0 -9508018.516 20414355.828 -11996308.745 10 0 61026 82800.00000 0 -10232118.484 21505143.474 -9163089.371 10 0 61026 83700.00000 0 -10674389.351 22347249.116 -6152056.209 10 0 61026 84600.00000 0 -10863993.092 22892848.787 -3021652.216 10 0 61026 85500.00000 0 -10839611.020 23103060.100 167376.374 10 0 61027 0.00000 0 -10647569.212 22949656.112 3353156.758 10 0 61027 900.00000 0 -10339651.562 22416350.984 6473888.872 10 0 61027 1800.00000 0 -9970693.599 21499603.593 9469039.726 10 0 61027 2700.00000 0 -9596058.719 20208904.794 12280515.369 10 0 61027 3600.00000 0 -9269103.766 18566535.995 14853783.620 10 0 61027 4500.00000 0 -9038740.973 16606808.586 17138927.748 10 0 61027 5400.00000 0 -8947199.117 14374815.322 19091610.764 10 0 61027 6300.00000 0 -9028078.324 11924744.948 20673932.093 10 0 61027 7200.00000 0 -9304780.605 9317829.422 21855160.471 10 0 61027 8100.00000 0 -9789382.465 6620008.140 22612329.340 10 0 61027 9000.00000 0 -10481997.513 3899405.212 22930683.528 10 0 61027 9900.00000 0 -11370656.625 1223723.528 22803968.710 10 0 61027 10800.00000 0 -12431711.643 -1342337.204 22234557.971 10 0 61027 11700.00000 0 -13630746.834 -3739532.261 21233412.698 10 0 61027 12600.00000 0 -14923961.075 -5916292.482 19819877.982 10 0 61027 13500.00000 0 -16259963.966 -7830622.070 18021315.754 10 0 61027 14400.00000 0 -17581911.552 -9451595.246 15872581.871 10 0 61027 15300.00000 0 -18829892.766 -10760389.838 13415356.426 10 0 61027 16200.00000 0 -19943466.788 -11750815.102 10697339.475 10 0 61027 17100.00000 0 -20864244.726 -12429312.172 7771327.164 10 0 61027 18000.00000 0 -21538406.647 -12814427.612 4694185.918 10 0 61027 18900.00000 0 -21919047.338 -12935782.837 1525744.592 10 0 61027 19800.00000 0 -21968251.024 -12832583.568 -1672373.572 10 0 61027 20700.00000 0 -21658806.512 -12551733.105 -4837955.822 10 0 61027 21600.00000 0 -20975489.312 -12145630.139 -7909417.362 10 0 61027 22500.00000 0 -19915855.633 -11669745.317 -10827006.820 10 0 61027 23400.00000 0 -18490513.851 -11180080.212 -13533975.300 10 0 61027 24300.00000 0 -16722861.266 -10730617.269 -15977685.499 10 0 61027 25200.00000 0 -14648296.668 -10370869.545 -18110638.744 10 0 61027 26100.00000 0 -12312941.383 -10143634.575 -19891399.637 10 0 61027 27000.00000 0 -9771922.149 -10083047.824 -21285400.331 10 0 61027 27900.00000 0 -7087287.460 -10213018.154 -22265609.091 10 0 61027 28800.00000 0 -4325644.217 -10546111.432 -22813050.578 10 0 61027 29700.00000 0 -1555612.931 -11082929.229 -22917168.406 10 0 61027 30600.00000 0 1154792.987 -11812008.616 -22576023.593 10 0 61027 31500.00000 0 3740755.425 -12710247.106 -21796325.668 10 0 61027 32400.00000 0 6143100.478 -13743834.676 -20593296.363 10 0 61027 33300.00000 0 8310507.329 -14869653.646 -18990368.924 10 0 61027 34200.00000 0 10201386.441 -16037087.515 -17018729.077 10 0 61027 35100.00000 0 11785350.310 -17190162.846 -14716706.659 10 0 61027 36000.00000 0 13044217.061 -18269934.264 -12129029.654 10 0 61027 36900.00000 0 13972506.543 -19217012.473 -9305955.043 10 0 61027 37800.00000 0 14577409.827 -19974129.109 -6302293.203 10 0 61027 38700.00000 0 14878234.931 -20488630.677 -3176344.685 10 0 61027 39600.00000 0 14905353.393 -20714796.665 11230.039 10 0 61027 40500.00000 0 14698693.234 -20615884.297 3198585.920 10 0 61027 41400.00000 0 14305842.707 -20165813.745 6323891.008 10 0 61027 42300.00000 0 13779845.466 -19350422.687 9326523.154 10 0 61027 43200.00000 0 13176780.605 -18168237.110 12148242.611 10 0 61027 44100.00000 0 12553229.875 -16630725.427 14734317.944 10 0 61027 45000.00000 0 11963738.945 -14762024.568 17034583.630 10 0 61027 45900.00000 0 11458379.661 -12598148.656 19004409.201 10 0 61027 46800.00000 0 11080515.876 -10185712.288 20605561.639 10 0 61027 47700.00000 0 10864866.795 -7580220.596 21806944.694 10 0 61027 48600.00000 0 10835949.271 -4843996.057 22585201.321 10 0 61027 49500.00000 0 11006964.678 -2043827.020 22925167.857 10 0 61027 50400.00000 0 11379177.436 751565.581 22820171.313 10 0 61027 51300.00000 0 11941811.821 3474139.367 22272163.957 10 0 61027 52200.00000 0 12672472.130 6059112.217 21291692.271 10 0 61027 53100.00000 0 13538069.402 8447408.260 19897700.330 10 0 61027 54000.00000 0 14496216.701 10587867.339 18117170.664 10 0 61027 54900.00000 0 15497035.214 12439126.683 15984608.690 10 0 61027 55800.00000 0 16485295.924 13971096.843 13541379.853 10 0 61027 56700.00000 0 17402807.226 15165970.718 10834911.515 10 0 61027 57600.00000 0 18190948.095 16018723.833 7917774.477 10 0 61027 58500.00000 0 18793239.801 16537085.249 4846661.660 10 0 61027 59400.00000 0 19157847.179 16740980.837 1681283.761 10 0 61027 60300.00000 0 19239903.027 16661472.894 -1516796.367 10 0 61027 61200.00000 0 19003556.437 16339241.561 -4685367.303 10 0 61027 62100.00000 0 18423657.374 15822672.981 -7762786.418 10 0 61027 63000.00000 0 17487005.204 15165635.979 -10689186.423 10 0 61027 63900.00000 0 16193107.337 14425042.230 -13407646.686 10 0 61027 64800.00000 0 14554415.023 13658294.104 -15865305.742 10 0 61027 65700.00000 0 12596025.502 12920728.917 -18014392.785 10 0 61027 66600.00000 0 10354862.371 12263168.305 -19813157.725 10 0 61027 67500.00000 0 7878368.036 11729676.673 -21226681.711 10 0 61027 68400.00000 0 5222762.516 11355623.467 -22227552.620 10 0 61027 69300.00000 0 2450941.063 11166130.952 -22796392.825 10 0 61027 70200.00000 0 -369902.145 11174972.573 -22922229.620 10 0 61027 71100.00000 0 -3170825.690 11383967.879 -22602701.767 10 0 61027 72000.00000 0 -5883762.392 11782898.903 -21844098.781 10 0 61027 72900.00000 0 -8444102.322 12349951.022 -20661232.757 10 0 61027 73800.00000 0 -10793130.910 13052659.246 -19077145.577 10 0 61027 74700.00000 0 -12880221.822 13849319.744 -17122657.462 10 0 61027 75600.00000 0 -14664694.633 14690806.969 -14835765.667 10 0 61027 76500.00000 0 -16117261.268 15522719.720 -12260904.973 10 0 61027 77400.00000 0 -17221002.311 16287765.753 -9448084.225 10 0 61027 78300.00000 0 -17971833.858 16928284.462 -6451915.543 10 0 61027 79200.00000 0 -18378446.807 17388801.371 -3330554.937 10 0 61027 80100.00000 0 -18461722.475 17618506.752 -144574.834 10 0 61027 81000.00000 0 -18253650.276 17573553.830 3044209.615 10 0 61027 81900.00000 0 -17795793.975 17219079.581 6173937.688 10 0 61027 82800.00000 0 -17137371.850 16530862.713 9183900.435 10 0 61027 83700.00000 0 -16333032.150 15496548.627 12015715.037 10 0 61027 84600.00000 0 -15440417.857 14116389.277 14614453.579 10 0 61027 85500.00000 0 -14517623.412 12403466.067 16929704.498 10 0 61028 0.00000 0 -13620650.464 10383385.722 18916546.389 10 0 61028 900.00000 0 -12800968.992 8093459.549 20536416.704 10 0 61028 1800.00000 0 -12103287.301 5581401.873 21757856.376 10 0 61028 2700.00000 0 -11563622.691 2903596.945 22557119.963 10 0 61028 3600.00000 0 -11207754.845 123007.609 22918637.080 10 0 61028 4500.00000 0 -11050126.332 -2693189.737 22835317.464 10 0 61028 5400.00000 0 -11093236.505 -5476146.877 22308693.537 10 0 61028 6300.00000 0 -11327554.568 -8157957.944 21348897.398 10 0 61028 7200.00000 0 -11731955.856 -10674238.478 19974472.143 10 0 61028 8100.00000 0 -12274663.576 -12966563.145 18212020.448 10 0 61028 9000.00000 0 -12914657.015 -14984661.387 16095696.357 10 0 61028 9900.00000 0 -13603487.468 -16688280.032 13666549.274 10 0 61028 10800.00000 0 -14287425.808 -18048635.472 10971732.054 10 0 61028 11700.00000 0 -14909851.283 -19049394.966 8063587.975 10 0 61028 12600.00000 0 -15413780.602 -19687146.157 4998633.967 10 0 61028 13500.00000 0 -15744430.006 -19971335.367 1836459.818 10 0 61028 14400.00000 0 -15851701.300 -19923677.630 -1361434.967 10 0 61028 15300.00000 0 -15692485.726 -19577063.809 -4532843.431 10 0 61028 16200.00000 0 -15232687.072 -18974011.567 -7616068.374 10 0 61028 17100.00000 0 -14448877.260 -18164726.351 -10551129.946 10 0 61028 18000.00000 0 -13329513.201 -17204855.206 -13280939.160 10 0 61028 18900.00000 0 -11875662.405 -16153029.140 -15752413.717 10 0 61028 19800.00000 0 -10101205.717 -15068298.723 -17917513.842 10 0 61028 20700.00000 0 -8032507.742 -14007571.780 -19734177.648 10 0 61028 21600.00000 0 -5707568.086 -13023161.753 -21167137.784 10 0 61028 22500.00000 0 -3174688.302 -12160550.198 -22188603.769 10 0 61028 23400.00000 0 -490709.817 -11456457.537 -22778797.174 10 0 61028 24300.00000 0 2281104.137 -10937302.860 -22926329.887 10 0 61028 25200.00000 0 5073454.837 -10618116.891 -22628418.764 10 0 61028 26100.00000 0 7817563.819 -10501953.048 -21890933.144 10 0 61028 27000.00000 0 10445792.479 -10579820.466 -20728274.837 10 0 61028 27900.00000 0 12894217.370 -10831140.923 -19163093.297 10 0 61028 28800.00000 0 15105055.022 -11224709.660 -17225841.757 10 0 61028 29700.00000 0 17028836.419 -11720118.967 -14954183.028 10 0 61028 30600.00000 0 18626241.749 -12269584.098 -12392256.440 10 0 61028 31500.00000 0 19869520.118 -12820094.163 -9589820.086 10 0 61028 32400.00000 0 20743436.201 -13315797.102 -6601284.885 10 0 61028 33300.00000 0 21245705.527 -13700517.943 -3484659.082 10 0 61028 34200.00000 0 21386901.343 -13920303.986 -300423.644 10 0 61028 35100.00000 0 21189838.086 -13925889.338 2889639.661 10 0 61028 36000.00000 0 20688458.298 -13674974.670 6023644.789 10 0 61028 36900.00000 0 19926270.571 -13134225.716 9040799.266 10 0 61028 37800.00000 0 18954404.723 -12280905.922 11882580.226 10 0 61028 38700.00000 0 17829366.385 -11104073.887 14493865.936 10 0 61028 39600.00000 0 16610585.507 -9605294.514 16824001.075 10 0 61028 40500.00000 0 15357861.776 -7798833.048 18827775.474 10 0 61028 41400.00000 0 14128813.985 -5711322.681 20466297.763 10 0 61028 42300.00000 0 12976440.091 -3380918.296 21707747.458 10 0 61028 43200.00000 0 11946889.893 -855970.197 22527991.323 10 0 61028 44100.00000 0 11077543.294 1806728.500 22911052.462 10 0 61028 45000.00000 0 10395474.345 4544049.430 22849423.179 10 0 61028 45900.00000 0 9916365.183 7288905.392 22344215.545 10 0 61028 46800.00000 0 9643915.282 9972798.315 21405146.441 10 0 61028 47700.00000 0 9569770.817 12528434.069 20050356.859 10 0 61028 48600.00000 0 9673977.267 14892296.438 18306068.241 10 0 61028 49500.00000 0 9925936.475 17007073.925 16206081.650 10 0 61028 50400.00000 0 10285828.164 18823838.758 13791128.628 10 0 61028 51300.00000 0 10706436.192 20303887.470 11108085.531 10 0 61028 52200.00000 0 11135302.609 21420166.267 8209065.948 10 0 61028 53100.00000 0 11517118.332 22158221.508 5150408.501 10 0 61028 54000.00000 0 11796248.991 22516635.471 1991579.646 10 0 61028 54900.00000 0 11919288.396 22506929.220 -1205986.961 10 0 61028 55800.00000 0 11837530.600 22152936.877 -4380091.338 10 0 61028 56700.00000 0 11509254.808 21489678.106 -7468984.173 10 0 61028 57600.00000 0 10901725.170 20561776.894 -10412575.396 10 0 61028 58500.00000 0 9992819.599 19421494.071 -13153609.837 10 0 61028 59400.00000 0 8772217.533 18126457.324 -15638786.340 10 0 61028 60300.00000 0 7242095.345 16737185.213 -17819797.944 10 0 61028 61200.00000 0 5417299.075 15314510.201 -19654272.548 10 0 61028 62100.00000 0 3324986.307 13917009.716 -21106595.714 10 0 61028 63000.00000 0 1003751.426 12598553.529 -22148599.840 10 0 61028 63900.00000 0 -1497729.762 11406070.485 -22760106.753 10 0 61028 64800.00000 0 -4122480.011 10377627.980 -22929313.779 10 0 61028 65700.00000 0 -6807351.534 9540904.093 -22653016.451 10 0 61028 66600.00000 0 -9485419.582 8912115.578 -21936664.186 10 0 61028 67500.00000 0 -12088539.704 8495445.560 -20794248.388 10 0 61028 68400.00000 0 -14549962.971 8282993.776 -19248025.554 10 0 61028 69300.00000 0 -16806901.140 8255250.280 -17328081.019 10 0 61028 70200.00000 0 -18802935.817 8382071.595 -15071741.868 10 0 61028 71100.00000 0 -20490172.253 8624117.290 -12522850.411 10 0 61028 72000.00000 0 -21831048.899 8934685.729 -9730912.192 10 0 61028 72900.00000 0 -22799728.238 9261870.993 -6750134.963 10 0 61028 73800.00000 0 -23383011.737 9550949.541 -3638377.117 10 0 61028 74700.00000 0 -23580741.650 9746895.540 -456025.979 10 0 61028 75600.00000 0 -23405673.722 9796918.381 2735172.348 10 0 61028 76500.00000 0 -22882826.990 9652914.964 5873308.862 10 0 61028 77400.00000 0 -22048338.631 9273732.964 8897510.042 10 0 61028 78300.00000 0 -20947872.494 8627149.162 11749115.510 10 0 61028 79200.00000 0 -19634648.442 7691478.974 14372812.303 10 0 61028 80100.00000 0 -18167175.398 6456748.719 16717703.906 10 0 61028 81000.00000 0 -16606783.137 4925380.443 18738293.697 10 0 61028 81900.00000 0 -15015056.056 3112359.468 20395364.163 10 0 61028 82800.00000 0 -13451276.093 1044876.332 21656735.261 10 0 61028 83700.00000 0 -11969981.327 -1238543.408 22497887.719 10 0 61028 84600.00000 0 -10618741.872 -3689386.808 22902439.540 10 0 61028 85500.00000 0 -9436245.563 -6250924.104 22862466.624 10 0 61029 0.00000 0 -8450773.070 -8860329.907 22378661.383 10 0 61029 900.00000 0 -7679125.328 -11451069.755 21460325.635 10 0 61029 1800.00000 0 -7126049.169 -13955450.564 20125198.135 10 0 61029 2700.00000 0 -6784183.260 -16307234.656 18399118.544 10 0 61029 3600.00000 0 -6634527.903 -18444205.879 16315534.023 10 0 61029 4500.00000 0 -6647418.307 -20310582.778 13914856.988 10 0 61029 5400.00000 0 -6783960.436 -21859178.119 11243685.705 10 0 61029 6300.00000 0 -6997868.751 -23053214.562 8353902.210 10 0 61029 7200.00000 0 -7237627.987 -23867720.277 5301664.721 10 0 61029 8100.00000 0 -7448887.131 -24290445.843 2146314.060 10 0 61029 9000.00000 0 -7576983.601 -24322263.705 -1050784.433 10 0 61029 9900.00000 0 -7569489.846 -23977033.358 -4227440.382 10 0 61029 10800.00000 0 -7378673.421 -23280938.020 -7321855.135 10 0 61029 11700.00000 0 -6963765.122 -22271321.042 -10273831.297 10 0 61029 12600.00000 0 -6292937.886 -20995071.539 -13025950.500 10 0 61029 13500.00000 0 -5344911.497 -19506627.893 -15524695.736 10 0 61029 14400.00000 0 -4110114.076 -17865683.814 -17721495.801 10 0 61029 15300.00000 0 -2591350.288 -16134694.167 -19573671.158 10 0 61029 16200.00000 0 -803947.146 -14376285.900 -21045262.789 10 0 61029 17100.00000 0 1224629.594 -12650683.063 -22107728.119 10 0 61029 18000.00000 0 3455673.073 -11013253.992 -22740490.959 10 0 61029 18900.00000 0 5840610.106 -9512283.095 -22931335.328 10 0 61029 19800.00000 0 8322796.280 -8187059.943 -22676636.232 10 0 61029 20700.00000 0 10839657.036 -7066364.696 -21981423.508 10 0 61029 21600.00000 0 13325086.068 -6167412.096 -20859278.067 10 0 61029 22500.00000 0 15712001.791 -5495296.864 -19332062.953 10 0 61029 23400.00000 0 17934956.000 -5042962.323 -17429494.672 10 0 61029 24300.00000 0 19932686.780 -4791692.126 -15188563.242 10 0 61029 25200.00000 0 21650509.994 -4712103.103 -12652812.153 10 0 61029 26100.00000 0 23042450.331 -4765596.316 -9871492.149 10 0 61029 27000.00000 0 24073023.728 -4906204.220 -6898605.126 10 0 61029 27900.00000 0 24718597.427 -5082755.294 -3791856.566 10 0 61029 28800.00000 0 24968271.521 -5241264.186 -611536.787 10 0 61029 29700.00000 0 24824245.743 -5327446.003 2580647.302 10 0 61029 30600.00000 0 24301656.771 -5289248.168 5722767.327 10 0 61029 31500.00000 0 23427893.394 -5079292.589 8753872.201 10 0 61029 32400.00000 0 22241418.642 -4657124.658 11615167.328 10 0 61029 33300.00000 0 20790148.526 -3991173.779 14251151.500 10 0 61029 34200.00000 0 19129455.408 -3060342.207 16610689.646 10 0 61029 35100.00000 0 17319879.572 -1855154.591 18648000.938 10 0 61029 36000.00000 0 15424644.472 -378418.933 20323543.543 10 0 61029 36900.00000 0 13507079.184 1354629.920 21604779.290 10 0 61029 37800.00000 0 11628055.239 3316711.683 22466803.881 10 0 61029 38700.00000 0 9843544.196 5469392.527 22892830.795 10 0 61029 39600.00000 0 8202397.320 7764451.883 22874519.694 10 0 61029 40500.00000 0 6744439.313 10145668.861 22412142.944 10 0 61029 41400.00000 0 5498955.094 12550955.467 21514586.782 10 0 61029 42300.00000 0 4483632.317 14914749.195 20199186.600 10 0 61029 43200.00000 0 3704003.381 17170566.590 18491398.825 10 0 61029 44100.00000 0 3153409.920 19253612.256 16424314.943 10 0 61029 45000.00000 0 2813490.982 21103335.082 14038026.190 10 0 61029 45900.00000 0 2655174.047 22665825.197 11378850.463 10 0 61029 46800.00000 0 2640126.851 23895951.377 8498435.775 10 0 61029 47700.00000 0 2722608.368 24759149.151 5452757.328 10 0 61029 48600.00000 0 2851640.192 25232784.197 2301027.594 10 0 61029 49500.00000 0 2973405.766 25307033.368 -895459.170 10 0 61029 50400.00000 0 3033774.980 24985245.917 -4074524.932 10 0 61029 51300.00000 0 2980846.118 24283769.515 -7174324.360 10 0 61029 52200.00000 0 2767396.308 23231248.338 -10134555.237 10 0 61029 53100.00000 0 2353135.414 21867422.944 -12897638.294 10 0 61029 54000.00000 0 1706666.744 20241482.791 -15409842.724 10 0 61029 54900.00000 0 807070.461 18410041.154 -17622334.890 10 0 61029 55800.00000 0 -354958.234 16434818.068 -19492129.392 10 0 61029 56700.00000 0 -1776465.134 14380128.997 -20982923.967 10 0 61029 57600.00000 0 -3442115.205 12310284.840 -22065802.204 10 0 61029 58500.00000 0 -5324598.780 10287012.224 -22719790.788 10 0 61029 59400.00000 0 -7385549.357 8367001.804 -22932261.089 10 0 61029 60300.00000 0 -9576935.228 6599686.446 -22699167.946 10 0 61029 61200.00000 0 -11842867.248 5025341.304 -22025121.629 10 0 61029 62100.00000 0 -14121747.835 3673583.947 -20923292.195 10 0 61029 63000.00000 0 -16348672.105 2562335.777 -19415148.460 10 0 61029 63900.00000 0 -18457981.476 1697286.669 -17530036.952 10 0 61029 64800.00000 0 -20385863.860 1071883.548 -15304609.113 10 0 61029 65700.00000 0 -22072892.505 667841.821 -12782107.817 10 0 61029 66600.00000 0 -23466398.038 456156.706 -10011527.001 10 0 61029 67500.00000 0 -24522575.185 398570.613 -7046660.538 10 0 61029 68400.00000 0 -25208236.608 449433.693 -3945058.714 10 0 61029 69300.00000 0 -25502140.939 557878.222 -766912.477 10 0 61029 70200.00000 0 -25395839.849 670214.373 2426112.904 10 0 61029 71100.00000 0 -24894009.060 732445.690 5572072.195 10 0 61029 72000.00000 0 -24014249.709 692797.577 8609939.320 10 0 61029 72900.00000 0 -22786368.612 504151.690 11480788.063 10 0 61029 73800.00000 0 -21251167.669 126283.073 14128931.563 10 0 61029 74700.00000 0 -19458793.038 -472194.730 16502998.684 10 0 61029 75600.00000 0 -17466712.975 -1312259.116 18556926.713 10 0 61029 76500.00000 0 -15337408.489 -2403349.244 20250851.567 10 0 61029 77400.00000 0 -13135872.784 -3742726.615 21551878.680 10 0 61029 78300.00000 0 -10927023.201 -5315353.412 22434720.077 10 0 61029 79200.00000 0 -8773132.804 -7094295.089 22882185.662 10 0 61029 80100.00000 0 -6731387.933 -9041631.893 22885519.380 10 0 61029 81000.00000 0 -4851672.657 -11109842.855 22444573.740 10 0 61029 81900.00000 0 -3174671.682 -13243606.116 21567819.070 10 0 61029 82800.00000 0 -1730370.172 -15381941.950 20272186.827 10 0 61029 83700.00000 0 -537012.414 -17460610.383 18582749.306 10 0 61029 84600.00000 0 399437.663 -19414664.374 16532241.113 10 0 61029 85500.00000 0 1085312.040 -21181052.583 14160430.842 99